Regional Weather Roundup
Issued by NWS

Home | Current Version | Previous Version | Graphics & Text | Print | Product List | Glossary On
Versions: 1 2 3 4 5 6 7 8 9 10 11 12 13 14 15 16 17 18 19 20 21 22 23 24 25 26 27 28 29 30 31 32 33 34 35 36 37 38 39 40 41 42 43 44 45 46 47 48 49 50
838
ASUS45 KBOU 221407
RWRCO

WEATHER ROUNDUP FOR COLORADO
NATIONAL WEATHER SERVICE DENVER/BOULDER CO
700 AM MST SUN JAN 22 2017

NOTE: "FAIR" INDICATES FEW OR NO CLOUDS BELOW 12000 FEET WITH NO
SIGNIFICANT WEATHER AND/OR OBSTRUCTIONS TO VISIBILITY.

COZ001>005-013-030-031-221500-
...NORTHWEST COLORADO...

CITY           SKY/WX    TMP DP  RH WIND       PRES   REMARKS
CRAIG          FAIR       8   3  80 CALM      30.00R
HAYDEN         FAIR      19  16  86 CALM      29.98S
MEEKER         MOCLDY     8   6  92 CALM      30.01R
MOUNT WERNER   NOT AVBL
STEAMBOAT SPGS CLOUDY    21  18  88 CALM      29.98R
WALDEN           N/A     14   9  79 CALM      29.93R
$$

COZ006>008-011-221500-
...WEST CENTRAL VALLEYS...

CITY           SKY/WX    TMP DP  RH WIND       PRES   REMARKS
GRAND JUNCTION FAIR      25  25 100 CALM      30.06R
MONTROSE       FAIR      21  16  81 SE12      30.07R WCI   9
EAGLE          PTCLDY    18  16  93 CALM      30.01S
RIFLE          CLOUDY    27  22  81 W3        30.04R
DELTA          FAIR      27  22  84 CALM      30.07R
NUCLA          NOT AVBL
$$

COZ017>023-064>068-221500-
...SOUTHWEST COLORADO...

CITY           SKY/WX    TMP DP  RH WIND       PRES   REMARKS
DURANGO        FAIR       1  -2  87 CALM      30.04R
CORTEZ         FAIR       5   3  91 E6        30.11R WCI  -6
PAGOSA SPRINGS CLOUDY    20  19  94 CALM      30.01R
TELLURIDE      FAIR      13   9  85 SE6       30.02R WCI   3
WOLF CREEK PAS   N/A      3   3 100 CALM      29.96R
$$

COZ009-010-012-014-032>034-037-058>063-221500-
...CENTRAL COLORADO...

CITY           SKY/WX    TMP DP  RH WIND       PRES   REMARKS
ASPEN          CLOUDY    22  19  89 CALM      29.97R
BUENA VISTA    FAIR      11   4  75 CALM      29.94R
COPPER MTN     CLOUDY    10   3  72 MISG      29.86
BERTHOUD PASS  NOT AVBL
COTTONWOOD PAS CLOUDY    21   9  58 N5        29.90R WCI  15
GUNNISON       FAIR       7   3  84 N6        30.01R WCI  -3
KREMMLING      MOCLDY    21  16  79 SE3       29.97S
LEADVILLE      FLURRIES  12   7  80 N3        29.89R
MONARCH PASS   CLOUDY     7   3  85 W9G22     29.96S WCI  -7
SALIDA         FAIR      22  12  64 NW7       30.02R WCI  14
SUNLIGHT       CLOUDY   N/A N/A N/A MISG      29.96R
WILKERSON PASS NOT AVBL
$$

COZ069>075-221500-
...SAN LUIS VALLEY/SANGRE DE CRISTO MOUNTAINS...

CITY           SKY/WX    TMP DP  RH WIND       PRES   REMARKS
ALAMOSA        FAIR      -5  -8  87 CALM      29.97R
LA VETA PASS   FAIR      12  10  92 NE17      29.89R WCI  -5
SAGUACHE       FAIR      19  10  68 N12       29.97R WCI   7
$$

COZ035-036-038>040-221500-
...NORTHERN COLORADO FRONT RANGE...

CITY           SKY/WX    TMP DP  RH WIND       PRES   REMARKS
DENVER INTL AP FAIR      29  14  53 W6        29.87R WCI  23
DMNS CITY PARK   N/A     34   7  32 MISG      29.89R
AURORA         PTCLDY    24  15  67 SW6       29.89R WCI  17
FRONT RANGE AP MOCLDY    27  18  69 W10       29.87  WCI  17
ERIE MUNI ARPT FAIR      25  17  71 CALM      29.87R
BOULDER MUN AP FAIR      28  16  59 SW6       29.87R WCI  22
CENTENNIAL     FAIR      24  11  57 SW7       29.88R WCI  16
BROOMFIELD     PTCLDY    34  10  37 W16G24    29.87R WCI  23
FORT COLLINS   FAIR      28  14  54 CALM      29.87R
LONGMONT       FAIR      29  16  57 S6        29.89R WCI  23
$$

COZ041-046-047-076>085-087-088-221500-
...PIKES PEAK/PALMER DIVIDE AND SOUTHERN FOOTHILLS...

CITY           SKY/WX    TMP DP  RH WIND       PRES   REMARKS
COLO. SPRINGS  FAIR      31   8  38 N17G23    29.87R WCI  19
A. F. ACADEMY  FAIR      28   6  40 N12       29.87R WCI  18
SCHRIEVER AFB  NOT AVBL
ELLICOTT       FAIR     N/A N/A N/A N6        29.85R
FALCON         FAIR      29   5  35 NW14      29.87R WCI  18
FORT CARSON    NOT AVBL
LIMON          FAIR      20  18  92 W7        29.87R WCI  11
MONUMENT HILL  FAIR      19   9  63 W9        29.89R WCI   9
TRINIDAD       FAIR      23  15  71 W13       29.89R WCI  11
$$

COZ042>045-048>051-090-091-221500-
...NORTHEAST COLORADO...

CITY           SKY/WX    TMP DP  RH WIND       PRES   REMARKS
GREELEY ARPT   NOT AVBL
AKRON          MOCLDY    25  21  85 W9        29.86R WCI  15
BURLINGTON     FAIR      30  25  81 NW16      29.84R WCI  19
WRAY           NOT AVBL
STERLING       FAIR      32  25  74 NW15      29.84R WCI  22
HOLYOKE        FAIR      34  27  75 NW13      29.83R WCI  25
FORT MORGAN    FAIR      32  19  60 NW13      29.87R WCI  22
$$

COZ086-089-092>099-221500-
...SOUTHEAST COLORADO...

CITY           SKY/WX    TMP DP  RH WIND       PRES   REMARKS
PUEBLO         FAIR      30  20  66 E3        29.88R
LA JUNTA       FAIR      27  23  85 W15       29.88R WCI  15
LAMAR          FAIR      28  24  85 SW9       29.86R WCI  19
SPRINGFIELD      N/A     29  27  92 W14       29.85R WCI  18
$$




USA.gov is the U.S. government's official web portal to all federal, state and local government web resources and services.